Pasco, WA

8:55 AM PDT on June 27, 2017 (GMT -0700)
Tri-Cities

Weather History for KPSC - December, 2013

Change the Weather History Date:

Friday, December 13, 2013

  Actual Average Record
Temperature  
Mean Temperature 27 °F 33 °F  
Max Temperature 38 °F 40 °F 60 °F (1998)
Min Temperature 16 °F 26 °F 16 °F (2013)
Degree Days  
Heating Degree Days 38 32  
Month to date heating degree days 555 399  
Since 1 July heating degree days 1905 1628  
Cooling Degree Days 0 0  
Month to date cooling degree days 0 0  
Year to date cooling degree days 995 710  
Moisture  
Dew Point 20 °F    
Average Humidity 73    
Maximum Humidity 92    
Minimum Humidity 54    
Precipitation  
Precipitation 0.00 in 0.02 in 0.28 in (1982)
Month to date precipitation 0.05 0.38  
Year to date precipitation 4.80 8.00  
Snow  
Snow 0.00 in - - ()
Snow Depth 0.00 in    
Sea Level Pressure  
Sea Level Pressure 30.37 in    
Wind  
Wind Speed 2 mph (North)    
Max Wind Speed 7 mph    
Max Gust Speed 8 mph    
Visibility 8 miles    
Events      
T = Trace of Precipitation, MM = Missing Value Source: NWS Daily Summary

Daily Weather History Graph

Daily Weather History Graph

Search for Another Location

Airport or City:

Trip Planner

Search our weather history database for the weather conditions in past years. The results will help you decide how hot, cold, wet, or windy it might be!

Date:

Astronomy

Dec. 13, 2013 Rise Set
Actual Time 7:31 AM PST 4:10 PM PST
Civil Twilight 6:56 AM PST 4:45 PM PST
Nautical Twilight 6:18 AM PST 5:23 PM PST
Astronomical Twilight 5:41 AM PST 5:59 PM PST
Moon 2:04 PM PST (12/13) 3:50 AM PST (12/13)
Length of Visible Light 9h 48m
Length of Day
8h 39m
Waxing Gibbous, 88% of the Moon is Illuminated
Dec 13
Waxing Gibbous
Dec 17
Full
Dec 25
Last Quarter
Jan 1
New
Jan 7
First Quarter

Hourly Weather History & Observations

Time (PST) Temp. Windchill Dew Point Humidity Pressure Visibility Wind Dir Wind Speed Gust Speed Precip Events Conditions
12:53 AM 19.9 °F 14.9 °F 17.1 °F 89% 30.25 in 8.0 mi North 3.5 mph - N/A   Clear
1:53 AM 19.0 °F - 17.1 °F 92% 30.27 in 8.0 mi Calm Calm - N/A   Clear
2:53 AM 21.0 °F 16.2 °F 18.0 °F 88% 30.28 in 7.0 mi ENE 3.5 mph - N/A   Clear
3:53 AM 21.0 °F - 19.0 °F 92% 30.29 in 7.0 mi Calm Calm - N/A   Clear
4:53 AM 21.9 °F - 19.9 °F 92% 30.30 in 7.0 mi Calm Calm - N/A   Overcast
5:53 AM 21.9 °F - 19.9 °F 92% 30.31 in 8.0 mi Calm Calm - N/A   Scattered Clouds
6:53 AM 18.0 °F - 16.0 °F 92% 30.32 in 6.0 mi Calm Calm - N/A   Clear
7:53 AM 17.1 °F 7.6 °F 15.1 °F 92% 30.32 in 4.0 mi North 6.9 mph - N/A   Clear
8:53 AM 21.9 °F - 19.0 °F 89% 30.35 in 5.0 mi Calm Calm - N/A   Clear
9:53 AM 28.0 °F - 24.1 °F 85% 30.37 in 7.0 mi Calm Calm - N/A   Clear
10:53 AM 30.9 °F 27.5 °F 23.0 °F 72% 30.39 in 9.0 mi WNW 3.5 mph - N/A   Partly Cloudy
11:53 AM 33.1 °F - 23.0 °F 66% 30.37 in 9.0 mi Calm Calm - N/A   Clear
12:53 PM 36.0 °F - 23.0 °F 59% 30.38 in 10.0 mi Calm Calm - N/A   Clear
1:53 PM 37.0 °F - 23.0 °F 57% 30.38 in 10.0 mi Calm Calm - N/A   Clear
2:53 PM 37.0 °F - 24.1 °F 59% 30.39 in 10.0 mi Calm Calm - N/A   Clear
3:53 PM 35.1 °F - 23.0 °F 61% 30.40 in 10.0 mi Calm Calm - N/A   Clear
4:53 PM 28.0 °F 24.2 °F 21.0 °F 75% 30.42 in 10.0 mi WNW 3.5 mph - N/A   Clear
5:53 PM 28.0 °F - 21.0 °F 75% 30.43 in 9.0 mi Calm Calm - N/A   Clear
6:53 PM 25.0 °F 20.7 °F 19.0 °F 78% 30.43 in 8.0 mi NE 3.5 mph - N/A   Clear
7:53 PM 24.1 °F 19.7 °F 19.0 °F 81% 30.44 in 8.0 mi NW 3.5 mph - N/A   Clear
8:53 PM 21.0 °F 14.6 °F 18.0 °F 88% 30.45 in 7.0 mi NNW 4.6 mph - N/A   Clear
9:53 PM 24.1 °F - 19.9 °F 84% 30.47 in 7.0 mi Calm Calm - N/A   Clear
10:53 PM 21.0 °F 14.6 °F 18.0 °F 88% 30.48 in 7.0 mi North 4.6 mph - N/A   Clear
11:53 PM 23.0 °F - 19.9 °F 88% 30.48 in 6.0 mi Calm Calm - N/A   Clear